Weather History for Las Vegas, NV

Change the Weather History Date:

Wednesday, December 5, 2012

  Actual Average Record
Temperature  
Mean Temperature 44 °F -  
Max Temperature 55 °F - - ()
Min Temperature 33 °F - - ()
Degree Days  
Heating Degree Days 21    
Moisture  
Dew Point 33 °F    
Average Humidity 65    
Maximum Humidity 83    
Minimum Humidity 40    
Precipitation  
Precipitation 0.00 in - - ()
Sea Level Pressure  
Sea Level Pressure 29.77 in    
Wind  
Wind Speed 7 mph (WNW)    
Max Wind Speed 17 mph    
Max Gust Speed 21 mph    
Visibility 10 miles    
Events Rain    
T = Trace of Precipitation, MM = Missing Value Source: NWS Daily Summary

Daily Weather History Graph

Daily Weather History Graph

Search for Another Location

Airport:

Trip Planner

Search our weather history database for the weather conditions in past years. The results will help you decide how hot, cold, wet, or windy it might be!

Date:

Astronomy

Dec. 05, 2012 Rise Set
Actual Time 6:45 AM PST 4:26 PM PST
Civil Twilight 6:16 AM PST 4:55 PM PST
Nautical Twilight 5:43 AM PST 5:28 PM PST
Astronomical Twilight 5:12 AM PST 5:59 PM PST
Moon 11:14 PM PST (12/5) 11:16 AM PST (12/5)
Length of Visible Light 10h 39m
Length of Day
9h 40m
Waning Gibbous, 58% of the Moon is Illuminated
Dec 5
Waning Gibbous
Dec 6
Last Quarter
Dec 13
New
Dec 19
First Quarter
Dec 28
Full

Hourly Weather History & Observations

Time (PST) Temp. Windchill Dew Point Humidity Pressure Visibility Wind Dir Wind Speed Gust Speed Precip Events Conditions
12:56 AM 42.1 °F 36.6 °F 32.0 °F 67% 29.85 in 10.0 mi WNW 9.2 mph - N/A   Clear
1:56 AM 39.0 °F 34.0 °F 30.9 °F 73% 29.83 in 10.0 mi WNW 6.9 mph - N/A   Clear
3:56 AM 37.9 °F 32.7 °F 30.0 °F 73% 29.81 in 10.0 mi WNW 6.9 mph - N/A   Clear
4:56 AM 37.0 °F 31.6 °F 30.0 °F 76% 29.83 in 10.0 mi West 6.9 mph - N/A   Clear
6:56 AM 33.1 °F 25.5 °F 28.0 °F 82% 29.83 in 10.0 mi West 9.2 mph - N/A   Clear
7:56 AM 37.9 °F - 30.0 °F 73% 29.82 in 10.0 mi Calm Calm - N/A   Clear
8:56 AM 43.0 °F 41.3 °F 34.0 °F 71% 29.83 in 10.0 mi SSW 3.5 mph - N/A   Clear
9:56 AM 46.0 °F 42.5 °F 34.0 °F 63% 29.81 in 10.0 mi South 6.9 mph - N/A   Clear
10:56 AM 50.0 °F - 33.1 °F 52% 29.78 in 10.0 mi South 6.9 mph - N/A   Clear
11:56 AM 55.0 °F - 30.9 °F 40% 29.74 in 10.0 mi SSW 8.1 mph 17.3 mph N/A   Clear
12:56 PM 53.1 °F - 32.0 °F 45% 29.72 in 10.0 mi West 16.1 mph - N/A   Clear
1:56 PM 53.1 °F - 33.1 °F 47% 29.72 in 10.0 mi West 16.1 mph 20.7 mph N/A   Partly Cloudy
2:56 PM 53.1 °F - 33.1 °F 47% 29.71 in 10.0 mi WNW 17.3 mph - N/A   Partly Cloudy
3:56 PM 51.1 °F - 34.0 °F 52% 29.73 in 10.0 mi North 3.5 mph - N/A   Mostly Cloudy
4:56 PM 48.0 °F - 33.1 °F 56% 29.75 in 10.0 mi North 5.8 mph - N/A   Overcast
5:56 PM 48.0 °F - 34.0 °F 58% 29.75 in 10.0 mi NNE 4.6 mph - 0.00 in Rain Light Rain
6:56 PM 46.0 °F 43.9 °F 35.1 °F 66% 29.77 in 10.0 mi NE 4.6 mph - N/A   Overcast
7:56 PM 45.0 °F 43.5 °F 34.0 °F 65% 29.74 in 10.0 mi ESE 3.5 mph - N/A   Mostly Cloudy
8:56 PM 41.0 °F 39.0 °F 34.0 °F 76% 29.73 in 10.0 mi NW 3.5 mph - 0.00 in Rain Light Rain
9:56 PM 41.0 °F 38.0 °F 34.0 °F 76% 29.72 in 10.0 mi West 4.6 mph - 0.00 in   Overcast
10:56 PM 39.9 °F 35.1 °F 34.0 °F 79% 29.72 in 10.0 mi NNW 6.9 mph - N/A   Partly Cloudy
11:56 PM 39.9 °F 34.5 °F 35.1 °F 83% 29.69 in 10.0 mi WNW 8.1 mph - N/A   Clear